DW0841 Weather Reports


Display with metric or nautical units.
time (UTC)temp
F
wind
direction
speed
MPH
gust
MPH
rain 1hr
in
rain 24hr
in
rain mn
in
humidity
%
barometer
mb
20260502221717 63 90 1.0 2.0 0.00 0.00 0.00 67 1011.7
20260502220717 63 0.0 1.0 0.00 0.00 0.00 68 1011.7
20260502215716 62 90 1.0 2.0 0.00 0.00 0.00 68 1011.6
20260502214717 62 0 1.0 1.0 0.00 0.00 0.00 70 1011.7
20260502213737 61 68 1.0 1.0 0.00 0.00 0.00 72 1011.7
20260502212717 60 0 1.0 2.0 0.00 0.00 0.00 74 1011.8
20260502211717 60 0.0 1.0 0.00 0.00 0.00 75 1011.6
20260502210717 60 0 1.0 2.0 0.00 0.00 0.00 75 1011.5
20260502205717 60 0.0 1.0 0.00 0.00 0.00 74 1011.5
20260502204738 61 0.0 0.0 0.00 0.00 0.00 72 1011.6
20260502203717 61 0.0 0.0 0.00 0.00 0.00 70 1011.9
20260502202717 61 0.0 0.0 0.00 0.00 0.00 66 1011.9
20260502201717 62 0.0 1.0 0.00 0.00 0.00 66 1011.9
20260502200716 62 0.0 0.0 0.00 0.00 0.00 65 1011.9
20260502195716 62 0.0 0.0 0.00 0.00 0.00 64 1011.9
20260502194717 63 0.0 1.0 0.00 0.00 0.00 63 1011.8
20260502193717 63 0.0 1.0 0.00 0.00 0.00 63 1011.7
20260502192717 63 270 2.0 3.0 0.00 0.00 0.00 62 1011.7
20260502191716 62 180 1.0 2.0 0.00 0.00 0.00 62 1011.8
20260502190716 62 158 1.0 3.0 0.00 0.00 0.00 62 1011.6
20260502185737 63 113 2.0 3.0 0.00 0.00 0.00 60 1011.8
20260502184716 65 113 1.0 2.0 0.00 0.00 0.00 58 1011.8
20260502183716 65 23 1.0 2.0 0.00 0.00 0.00 58 1011.8
20260502182737 65 0 2.0 3.0 0.00 0.00 0.00 58 1011.7
20260502181717 64 270 2.0 4.0 0.00 0.00 0.00 58 1011.8
20260502180716 64 23 4.0 9.0 0.00 0.00 0.00 58 1011.7
20260502163716 58 0.0 0.0 0.00 0.00 0.00 76 1012.2
20260502162717 58 0.0 2.0 0.00 0.00 0.00 76 1012.4
20260502161717 58 135 2.0 3.0 0.00 0.00 0.00 78 1012.4
20260502160716 57 225 1.0 2.0 0.00 0.00 0.00 78 1012.6
20260502151716 57 0.0 0.0 0.00 0.00 0.00 76 1013.0
20260502150716 57 23 2.0 3.0 0.00 0.00 0.00 74 1013.0
20260502130719 63 45 1.0 1.0 0.00 0.00 0.00 63 1013.7
20260502123718 64 68 2.0 2.0 0.00 0.00 0.00 62 1013.6
20260502122718 64 90 2.0 3.0 0.00 0.00 0.00 62 1013.7
20260502121718 65 90 2.0 3.0 0.00 0.00 0.00 62 1013.8
20260502120738 65 90 2.0 2.0 0.00 0.00 0.00 62 1013.9
20260502115718 65 0.0 0.0 0.00 0.00 0.00 61 1014.0
20260502114718 66 113 3.0 3.0 0.00 0.00 0.00 60 1014.0
20260502113718 67 90 2.0 3.0 0.00 0.00 0.00 58 1013.9
20260502112718 67 68 1.0 4.0 0.00 0.00 0.00 57 1014.0
20260502111738 67 135 2.0 4.0 0.00 0.00 0.00 57 1013.9
20260502110718 67 0 2.0 4.0 0.00 0.00 0.00 57 1013.8
20260502105718 67 0 2.0 4.0 0.00 0.00 0.00 58 1014.0
20260502104717 67 0.0 1.0 0.00 0.00 0.00 57 1013.8
20260502103758 67 315 1.0 3.0 0.00 0.00 0.00 57 1013.8
20260502102718 66 158 1.0 2.0 0.00 0.00 0.00 58 1013.7
20260502101738 67 0.0 2.0 0.00 0.00 0.00 57 1013.8
20260502100718 66 45 1.0 1.0 0.00 0.00 0.00 57 1013.8
20260502090718 66 0.0 1.0 0.00 0.00 0.00 56 1013.7
20260502070718 70 0 2.0 3.0 0.00 0.00 0.00 48 1013.1
20260502065717 69 0 2.0 3.0 0.00 0.00 0.00 51 1013.3
20260502064717 69 0.0 1.0 0.00 0.00 0.00 52 1013.4
20260502063717 68 68 1.0 1.0 0.00 0.00 0.00 56 1013.5
20260502062718 69 0.0 0.0 0.00 0.00 0.00 57 1013.4
20260502061717 70 0.0 0.0 0.00 0.00 0.00 55 1013.3
20260502060717 71 0.0 1.0 0.00 0.00 0.00 52 1013.4
20260502055717 71 68 1.0 2.0 0.00 0.00 0.00 50 1013.5
20260502054718 72 0.0 0.0 0.00 0.00 0.00 49 1013.7
20260502053738 72 90 2.0 2.0 0.00 0.00 0.00 51 1013.6
20260502052717 73 45 3.0 4.0 0.00 0.00 0.00 50 1013.7
20260502051717 72 113 2.0 4.0 0.00 0.00 0.00 51 1013.7
20260502050757 73 68 3.0 6.0 0.00 0.00 0.00 50 1013.7
20260502045717 73 90 4.0 7.0 0.00 0.00 0.00 48 1013.7
20260502044717 74 90 3.0 4.0 0.00 0.00 0.00 46 1013.7
20260502043718 74 113 3.0 4.0 0.00 0.00 0.00 45 1013.7
20260502042718 74 113 2.0 4.0 0.00 0.00 0.00 44 1013.8
20260502041717 74 113 4.0 7.0 0.00 0.00 0.00 43 1013.9
20260502040717 74 113 6.0 9.0 0.00 0.00 0.00 44 1013.9
20260502035718 74 68 3.0 4.0 0.00 0.00 0.00 43 1014.0
20260502034717 74 68 3.0 7.0 0.00 0.00 0.00 42 1014.1
20260502033718 74 113 4.0 6.0 0.00 0.00 0.00 41 1014.1
20260502032717 75 113 2.0 4.0 0.00 0.00 0.00 42 1014.2
20260502031737 75 23 3.0 5.0 0.00 0.00 0.00 41 1014.5
20260502030717 76 315 2.0 4.0 0.00 0.00 0.00 38 1014.6
20260502025717 76 23 4.0 8.0 0.00 0.00 0.00 38 1014.7
20260502024717 76 68 1.0 2.0 0.00 0.00 0.00 39 1014.9
20260502023717 77 293 2.0 4.0 0.00 0.00 0.00 38 1015.0
20260502022717 76 338 2.0 4.0 0.00 0.00 0.00 38 1015.3
20260502021717 76 23 2.0 4.0 0.00 0.00 0.00 38 1015.6
20260502020718 76 0 3.0 4.0 0.00 0.00 0.00 39 1015.7
20260502015758 76 293 5.0 7.0 0.00 0.00 0.00 41 1015.8
20260502014737 75 45 4.0 8.0 0.00 0.00 0.00 41 1016.1
20260502013717 74 248 1.0 2.0 0.00 0.00 0.00 42 1016.0
20260502012717 74 338 1.0 3.0 0.00 0.00 0.00 43 1016.3
20260502011717 73 315 4.0 11.0 0.00 0.00 0.00 44 1016.3
20260502010717 73 338 2.0 4.0 0.00 0.00 0.00 44 1016.6
20260502005717 73 0 2.0 3.0 0.00 0.00 0.00 45 1016.7
20260502004717 72 0 1.0 2.0 0.00 0.00 0.00 45 1016.6
20260502003717 72 315 3.0 5.0 0.00 0.00 0.00 46 1016.7
20260502002717 71 293 3.0 8.0 0.00 0.00 0.00 47 1016.9
20260502001718 70 338 3.0 4.0 0.00 0.00 0.00 48 1016.9
20260502000717 70 315 1.0 3.0 0.00 0.00 0.00 49 1016.9
20260501235718 70 315 2.0 4.0 0.00 0.00 0.00 49 1017.0
20260501234717 70 338 2.0 3.0 0.00 0.00 0.00 49 1017.1
20260501233717 69 338 3.0 8.0 0.00 0.00 0.00 48 1017.1
20260501232737 70 0 2.0 5.0 0.00 0.00 0.00 48 1017.3
20260501231717 69 0 3.0 7.0 0.00 0.00 0.00 49 1017.5
20260501230717 68 0 2.0 3.0 0.00 0.00 0.00 51 1017.5
20260501225717 67 338 4.0 8.0 0.00 0.00 0.00 51 1017.6
20260501224717 66 0 3.0 6.0 0.00 0.00 0.00 54 1017.7
20260501223717 64 338 2.0 3.0 0.00 0.00 0.00 56 1017.6
20260501222737 63 0 3.0 4.0 0.00 0.00 0.00 57 1017.6